Retour au catalogue

STARLINK-37141

ActifCommunicationsVLEO
NORAD 68249·PAYLOAD·🇺🇸 United States

Lancé Mar 17, 2026 depuis Vandenberg Space Force Base

Loading…

Prochains Passages (prochaines 24 heures)

TLE

FraisSource: CelesTrak SupGP

Époque: Sep 15, 2026, 02:50 UTC

1 68249C 26054T   26258.11854167  .00035000  00000+0  10342-2 0  2589
2 68249  53.1558 126.6797 0001241  87.5880 122.0771 15.34368218    12

Suivez STARLINK-37141 en temps réel avec AllMySat

Download on the App Store